Time,TemperatureF,DewpointF,PressureIn,WindDirection,WindDirectionDegrees,WindSpeedMPH,WindSpeedGustMPH,Humidity,HourlyPrecipIn,Conditions,Clouds,dailyrainin,SoftwareType,DateUTC
2013-02-24 00:00:00,42.9,40.7,29.83,WNW,288,2.0,4.0,92,0.00,RA,,0.00,WeatherDisplay:10.37,2013-02-24 05:00:00,
2013-02-24 00:10:00,42.9,40.7,29.83,WNW,288,0.0,4.0,92,0.00,CLR,,0.00,WeatherDisplay:10.37,2013-02-24 05:10:00,
2013-02-24 00:20:00,43.1,40.9,29.83,WNW,287,3.0,5.0,92,0.00,CLR,,0.00,WeatherDisplay:10.37,2013-02-24 05:20:00,
2013-02-24 00:30:00,43.1,40.9,29.83,WNW,285,2.0,6.0,92,0.00,CLR,,0.00,WeatherDisplay:10.37,2013-02-24 05:30:00,
2013-02-24 00:40:00,43.1,40.9,29.83,West,279,3.0,7.0,92,0.00,CLR,,0.00,WeatherDisplay:10.37,2013-02-24 05:40:00,
2013-02-24 00:50:00,43.1,40.9,29.84,West,266,5.0,7.0,92,0.00,CLR,,0.00,WeatherDisplay:10.37,2013-02-24 05:50:00,
2013-02-24 01:00:00,43.1,40.9,29.84,West,259,3.0,7.0,92,0.00,CLR,,0.00,WeatherDisplay:10.37,2013-02-24 06:00:00,
2013-02-24 01:10:00,43.1,40.9,29.85,WSW,249,5.0,9.0,92,0.00,CLR,,0.00,WeatherDisplay:10.37,2013-02-24 06:10:00,
2013-02-24 01:20:00,43.1,41.2,29.85,SW,231,2.0,9.0,93,0.00,CLR,,0.00,WeatherDisplay:10.37,2013-02-24 06:20:00,
2013-02-24 01:30:00,43.1,41.2,29.85,SW,223,3.0,7.0,93,0.00,CLR,,0.00,WeatherDisplay:10.37,2013-02-24 06:30:00,
2013-02-24 01:40:00,43.1,41.2,29.83,SW,231,5.0,7.0,93,0.00,CLR,,0.00,WeatherDisplay:10.37,2013-02-24 06:40:00,
2013-02-24 01:50:00,43.1,41.2,29.84,SW,233,1.0,6.0,93,0.00,CLR,,0.00,WeatherDisplay:10.37,2013-02-24 06:50:00,
2013-02-24 02:00:00,43.1,41.2,29.84,WSW,240,5.0,9.0,93,0.00,CLR,,0.00,WeatherDisplay:10.37,2013-02-24 07:00:00,
2013-02-24 02:10:00,43.1,41.2,29.85,WSW,248,3.0,10.0,93,0.00,CLR,,0.00,WeatherDisplay:10.37,2013-02-24 07:10:00,
2013-02-24 02:20:00,43.2,41.3,29.84,WSW,247,3.0,9.0,93,0.00,CLR,,0.00,WeatherDisplay:10.37,2013-02-24 07:20:00,
2013-02-24 02:30:00,43.2,41.3,29.84,WSW,250,6.0,12.0,93,0.01,RA,,0.01,WeatherDisplay:10.37,2013-02-24 07:30:00,
2013-02-24 02:40:00,43.2,41.3,29.85,WSW,256,5.0,12.0,93,0.00,,,0.01,WeatherDisplay:10.37,2013-02-24 07:40:00,
2013-02-24 02:50:00,43.2,41.3,29.83,WSW,258,5.0,9.0,93,0.00,CLR,,0.01,WeatherDisplay:10.37,2013-02-24 07:50:00,
2013-02-24 03:00:00,43.2,41.3,29.83,WSW,257,5.0,10.0,93,0.00,CLR,,0.01,WeatherDisplay:10.37,2013-02-24 08:00:00,
2013-02-24 03:10:00,43.1,41.2,29.83,West,259,3.0,6.0,93,0.00,CLR,,0.01,WeatherDisplay:10.37,2013-02-24 08:10:00,
2013-02-24 03:20:00,42.9,41.0,29.83,West,260,3.0,6.0,93,0.00,CLR,,0.01,WeatherDisplay:10.37,2013-02-24 08:20:00,
2013-02-24 03:30:00,42.8,40.9,29.83,West,260,2.0,4.0,93,0.00,CLR,,0.01,WeatherDisplay:10.37,2013-02-24 08:30:00,
2013-02-24 03:40:00,42.8,40.9,29.81,West,260,2.0,4.0,93,0.00,CLR,,0.01,WeatherDisplay:10.37,2013-02-24 08:40:00,
2013-02-24 03:50:00,42.6,40.7,29.82,West,260,3.0,5.0,93,0.00,CLR,,0.01,WeatherDisplay:10.37,2013-02-24 08:50:00,
2013-02-24 04:00:00,42.5,40.6,29.82,West,260,2.0,5.0,93,0.00,CLR,,0.01,WeatherDisplay:10.37,2013-02-24 09:00:00,
2013-02-24 04:10:00,42.3,40.4,29.81,West,261,2.0,7.0,93,0.00,CLR,,0.01,WeatherDisplay:10.37,2013-02-24 09:10:00,
2013-02-24 04:20:00,42.2,40.3,29.82,West,262,3.0,6.0,93,0.00,CLR,,0.01,WeatherDisplay:10.37,2013-02-24 09:20:00,
2013-02-24 04:30:00,42.1,40.2,29.82,West,263,2.0,5.0,93,0.00,CLR,,0.01,WeatherDisplay:10.37,2013-02-24 09:30:00,
2013-02-24 04:40:00,41.9,40.3,29.83,West,263,3.0,6.0,94,0.00,CLR,,0.01,WeatherDisplay:10.37,2013-02-24 09:40:00,
2013-02-24 04:50:00,41.9,40.3,29.83,West,265,2.0,6.0,94,0.00,CLR,,0.01,WeatherDisplay:10.37,2013-02-24 09:50:00,
2013-02-24 05:00:00,42.1,40.5,29.83,West,265,3.0,6.0,94,0.00,CLR,,0.01,WeatherDisplay:10.37,2013-02-24 10:00:00,
2013-02-24 05:10:00,42.1,40.5,29.83,West,265,3.0,6.0,94,0.00,CLR,,0.01,WeatherDisplay:10.37,2013-02-24 10:10:00,
2013-02-24 05:20:00,41.9,40.3,29.84,West,264,5.0,9.0,94,0.00,CLR,,0.01,WeatherDisplay:10.37,2013-02-24 10:20:00,
2013-02-24 05:30:00,41.9,40.3,29.84,West,263,2.0,7.0,94,0.00,CLR,,0.01,WeatherDisplay:10.37,2013-02-24 10:30:00,
2013-02-24 05:40:00,41.8,40.2,29.84,West,264,1.0,6.0,94,0.00,CLR,,0.01,WeatherDisplay:10.37,2013-02-24 10:40:00,
2013-02-24 05:50:00,41.8,40.5,29.85,West,264,1.0,5.0,95,0.00,CLR,,0.01,WeatherDisplay:10.37,2013-02-24 10:50:00,
2013-02-24 06:00:00,41.8,40.5,29.85,West,264,2.0,6.0,95,0.00,CLR,,0.01,WeatherDisplay:10.37,2013-02-24 11:00:00,
2013-02-24 06:10:00,41.6,40.3,29.86,West,265,2.0,5.0,95,0.00,CLR,,0.01,WeatherDisplay:10.37,2013-02-24 11:10:00,
2013-02-24 06:20:00,41.5,40.2,29.86,West,265,2.0,5.0,95,0.00,CLR,,0.01,WeatherDisplay:10.37,2013-02-24 11:20:00,
2013-02-24 06:30:00,41.3,40.0,29.86,West,265,3.0,6.0,95,0.00,CLR,,0.01,WeatherDisplay:10.37,2013-02-24 11:30:00,
2013-02-24 06:40:00,41.2,39.9,29.86,West,265,3.0,6.0,95,0.00,CLR,,0.01,WeatherDisplay:10.37,2013-02-24 11:40:00,
2013-02-24 06:50:00,41.2,39.9,29.87,West,267,0.0,6.0,95,0.00,CLR,,0.01,WeatherDisplay:10.37,2013-02-24 11:50:00,
2013-02-24 07:00:00,41.1,39.8,29.87,West,267,1.0,3.0,95,0.00,CLR,,0.01,WeatherDisplay:10.37,2013-02-24 12:00:00,
2013-02-24 07:10:00,40.9,39.6,29.88,West,267,0.0,5.0,95,0.00,CLR,,0.01,WeatherDisplay:10.37,2013-02-24 12:10:00,
2013-02-24 07:20:00,40.8,39.5,29.90,West,267,0.0,4.0,95,0.00,CLR,,0.01,WeatherDisplay:10.37,2013-02-24 12:20:00,
2013-02-24 07:30:00,40.6,39.3,29.90,West,267,0.0,3.0,95,0.00,CLR,,0.01,WeatherDisplay:10.37,2013-02-24 12:30:00,
2013-02-24 07:40:00,40.5,39.2,29.90,West,267,0.0,3.0,95,0.00,CLR,,0.01,WeatherDisplay:10.37,2013-02-24 12:40:00,
2013-02-24 07:50:00,40.5,39.2,29.91,West,267,0.0,1.0,95,0.00,CLR,,0.01,WeatherDisplay:10.37,2013-02-24 12:50:00,
2013-02-24 08:00:00,40.5,39.2,29.91,West,266,3.0,6.0,95,0.00,CLR,,0.01,WeatherDisplay:10.37,2013-02-24 13:00:00,
2013-02-24 08:10:00,40.5,39.2,29.92,West,265,2.0,6.0,95,0.00,CLR,,0.01,WeatherDisplay:10.37,2013-02-24 13:10:00,
2013-02-24 08:20:00,40.6,39.3,29.94,West,265,3.0,6.0,95,0.00,CLR,,0.01,WeatherDisplay:10.37,2013-02-24 13:20:00,
2013-02-24 08:30:00,40.9,39.6,29.94,West,265,0.0,4.0,95,0.00,CLR,,0.01,WeatherDisplay:10.37,2013-02-24 13:30:00,
2013-02-24 08:40:00,41.4,40.3,29.94,West,265,0.0,6.0,96,0.00,CLR,,0.01,WeatherDisplay:10.37,2013-02-24 13:40:00,
2013-02-24 08:50:00,42.2,41.2,29.94,West,265,0.0,0.0,96,0.00,CLR,,0.01,WeatherDisplay:10.37,2013-02-24 13:50:00,
2013-02-24 09:00:00,43.6,42.6,29.94,West,265,0.0,0.0,96,0.00,CLR,,0.01,WeatherDisplay:10.37,2013-02-24 14:00:00,
2013-02-24 09:10:00,44.7,42.5,29.94,West,265,0.0,4.0,92,0.00,CLR,,0.01,WeatherDisplay:10.37,2013-02-24 14:10:00,
2013-02-24 09:20:00,46.4,41.5,29.94,West,265,2.0,6.0,83,0.00,CLR,,0.01,WeatherDisplay:10.37,2013-02-24 14:20:00,
2013-02-24 09:30:00,47.1,40.6,29.94,West,266,1.0,7.0,78,0.00,CLR,,0.01,WeatherDisplay:10.37,2013-02-24 14:30:00,
2013-02-24 09:40:00,48.8,41.6,29.94,West,267,0.0,6.0,76,0.00,CLR,,0.01,WeatherDisplay:10.37,2013-02-24 14:40:00,
2013-02-24 09:50:00,49.1,39.4,29.93,West,267,0.0,7.0,69,0.00,CLR,,0.01,WeatherDisplay:10.37,2013-02-24 14:50:00,
2013-02-24 10:00:00,49.8,38.9,29.93,West,267,5.0,10.0,66,0.00,CLR,,0.01,WeatherDisplay:10.37,2013-02-24 15:00:00,
2013-02-24 10:10:00,51.0,38.4,29.94,WNW,298,0.0,9.0,62,0.00,CLR,,0.01,WeatherDisplay:10.37,2013-02-24 15:10:00,
2013-02-24 10:20:00,51.6,37.7,29.94,West,266,6.0,12.0,59,0.00,CLR,,0.01,WeatherDisplay:10.37,2013-02-24 15:20:00,
2013-02-24 10:30:00,51.4,38.0,29.94,West,269,7.0,15.0,60,0.00,CLR,,0.01,WeatherDisplay:10.37,2013-02-24 15:30:00,
2013-02-24 10:40:00,51.9,35.8,29.95,West,271,5.0,14.0,54,0.00,CLR,,0.01,WeatherDisplay:10.37,2013-02-24 15:40:00,
2013-02-24 10:50:00,53.0,36.7,29.94,West,263,3.0,12.0,54,0.00,CLR,,0.01,WeatherDisplay:10.37,2013-02-24 15:50:00,
2013-02-24 11:00:00,53.4,36.2,29.94,WNW,284,3.0,10.0,52,0.00,CLR,,0.01,WeatherDisplay:10.37,2013-02-24 16:00:00,
2013-02-24 11:10:00,54.1,34.3,29.94,WNW,302,3.0,12.0,47,0.00,CLR,,0.01,WeatherDisplay:10.37,2013-02-24 16:10:00,
2013-02-24 11:20:00,54.7,33.2,29.94,WNW,282,0.0,17.0,44,0.00,CLR,,0.01,WeatherDisplay:10.37,2013-02-24 16:20:00,
2013-02-24 11:30:00,54.6,33.1,29.94,West,280,2.0,15.0,44,0.00,CLR,,0.01,WeatherDisplay:10.37,2013-02-24 16:30:00,
2013-02-24 11:40:00,55.3,32.0,29.94,NW,309,1.0,10.0,41,0.00,CLR,,0.01,WeatherDisplay:10.37,2013-02-24 16:40:00,
2013-02-24 11:50:00,55.4,32.1,29.94,NW,326,3.0,7.0,41,0.00,CLR,,0.01,WeatherDisplay:10.37,2013-02-24 16:50:00,
2013-02-24 12:00:00,55.4,28.9,29.94,WNW,284,7.0,17.0,36,0.00,CLR,,0.01,WeatherDisplay:10.37,2013-02-24 17:00:00,
2013-02-24 12:10:00,56.5,29.9,29.93,NW,306,2.0,10.0,36,0.00,CLR,,0.01,WeatherDisplay:10.37,2013-02-24 17:10:00,
2013-02-24 12:20:00,56.8,28.7,29.93,West,276,8.0,14.0,34,0.00,CLR,,0.01,WeatherDisplay:10.37,2013-02-24 17:20:00,
2013-02-24 12:30:00,56.5,29.1,29.93,West,278,5.0,12.0,35,0.00,CLR,,0.01,WeatherDisplay:10.37,2013-02-24 17:30:00,
2013-02-24 12:40:00,57.4,29.2,29.92,West,275,8.0,16.0,34,0.00,CLR,,0.01,WeatherDisplay:10.37,2013-02-24 17:40:00,
2013-02-24 12:50:00,58.1,27.6,29.92,WNW,287,5.0,15.0,31,0.00,CLR,,0.01,WeatherDisplay:10.37,2013-02-24 17:50:00,
2013-02-24 13:00:00,57.9,26.6,29.92,West,275,3.0,14.0,30,0.00,CLR,,0.01,WeatherDisplay:10.37,2013-02-24 18:00:00,
2013-02-24 13:10:00,58.9,25.0,29.91,WNW,284,3.0,17.0,27,0.00,CLR,,0.01,WeatherDisplay:10.37,2013-02-24 18:10:00,
2013-02-24 13:20:00,59.1,26.0,29.91,WNW,286,9.0,14.0,28,0.00,CLR,,0.01,WeatherDisplay:10.37,2013-02-24 18:20:00,
2013-02-24 13:30:00,59.3,24.4,29.91,West,276,1.0,12.0,26,0.00,CLR,,0.01,WeatherDisplay:10.37,2013-02-24 18:30:00,
2013-02-24 13:40:00,59.6,23.7,29.91,WNW,298,3.0,14.0,25,0.00,CLR,,0.01,WeatherDisplay:10.37,2013-02-24 18:40:00,
2013-02-24 13:50:00,59.8,24.8,29.91,WNW,294,2.0,12.0,26,0.00,CLR,,0.01,WeatherDisplay:10.37,2013-02-24 18:50:00,
2013-02-24 14:00:00,59.3,25.3,29.91,NW,315,5.0,13.0,27,0.00,CLR,,0.01,WeatherDisplay:10.37,2013-02-24 19:00:00,
2013-02-24 14:10:00,59.9,24.9,29.90,West,274,3.0,15.0,26,0.00,CLR,,0.01,WeatherDisplay:10.37,2013-02-24 19:10:00,
2013-02-24 14:20:00,60.3,25.2,29.90,WNW,284,2.0,16.0,26,0.00,CLR,,0.01,WeatherDisplay:10.37,2013-02-24 19:20:00,
2013-02-24 14:30:00,61.2,24.1,29.90,WNW,286,7.0,17.0,24,0.00,CLR,,0.01,WeatherDisplay:10.37,2013-02-24 19:30:00,
2013-02-24 14:40:00,59.7,22.8,29.90,West,259,12.0,18.0,24,0.00,CLR,,0.01,WeatherDisplay:10.37,2013-02-24 19:40:00,
2013-02-24 14:50:00,60.5,23.4,29.90,WNW,284,6.0,20.0,24,0.00,CLR,,0.01,WeatherDisplay:10.37,2013-02-24 19:50:00,
2013-02-24 15:00:00,60.2,23.2,29.90,West,273,3.0,18.0,24,0.00,CLR,,0.01,WeatherDisplay:10.37,2013-02-24 20:00:00,
2013-02-24 15:10:00,60.6,23.6,29.90,WNW,286,1.0,13.0,24,0.00,CLR,,0.01,WeatherDisplay:10.37,2013-02-24 20:10:00,
2013-02-24 15:20:00,60.9,24.8,29.89,NW,304,5.0,12.0,25,0.00,CLR,,0.01,WeatherDisplay:10.37,2013-02-24 20:20:00,
2013-02-24 15:30:00,61.5,25.3,29.89,West,263,2.0,13.0,25,0.00,CLR,,0.01,WeatherDisplay:10.37,2013-02-24 20:30:00,
2013-02-24 15:40:00,61.0,24.9,29.90,West,270,3.0,9.0,25,0.00,CLR,,0.01,WeatherDisplay:10.37,2013-02-24 20:40:00,
2013-02-24 15:50:00,61.3,26.1,29.90,West,261,5.0,9.0,26,0.00,CLR,,0.01,WeatherDisplay:10.37,2013-02-24 20:50:00,
2013-02-24 16:00:00,61.1,25.9,29.90,West,269,0.0,15.0,26,0.00,CLR,,0.01,WeatherDisplay:10.37,2013-02-24 21:00:00,
2013-02-24 16:10:00,61.0,25.8,29.90,West,264,7.0,15.0,26,0.00,CLR,,0.01,WeatherDisplay:10.37,2013-02-24 21:10:00,
2013-02-24 16:20:00,60.4,25.3,29.91,West,259,1.0,16.0,26,0.00,CLR,,0.01,WeatherDisplay:10.37,2013-02-24 21:20:00,
2013-02-24 16:30:00,60.7,25.6,29.91,West,273,6.0,13.0,26,0.00,CLR,,0.01,WeatherDisplay:10.37,2013-02-24 21:30:00,
2013-02-24 16:40:00,60.9,24.8,29.91,West,272,6.0,12.0,25,0.00,CLR,,0.01,WeatherDisplay:10.37,2013-02-24 21:40:00,
2013-02-24 16:50:00,60.4,24.4,29.91,West,280,3.0,11.0,25,0.00,CLR,,0.01,WeatherDisplay:10.37,2013-02-24 21:50:00,
2013-02-24 17:00:00,60.5,23.5,29.91,West,273,2.0,9.0,24,0.00,CLR,,0.01,WeatherDisplay:10.37,2013-02-24 22:00:00,
2013-02-24 17:10:00,60.5,23.5,29.91,NW,315,0.0,5.0,24,0.00,CLR,,0.01,WeatherDisplay:10.37,2013-02-24 22:10:00,
2013-02-24 17:20:00,60.4,22.4,29.91,WNW,292,2.0,7.0,23,0.00,CLR,,0.01,WeatherDisplay:10.37,2013-02-24 22:20:00,
2013-02-24 17:30:00,60.2,22.2,29.91,WNW,295,0.0,6.0,23,0.00,CLR,,0.01,WeatherDisplay:10.37,2013-02-24 22:30:00,
2013-02-24 17:40:00,59.9,22.0,29.91,WNW,297,0.0,5.0,23,0.00,CLR,,0.01,WeatherDisplay:10.37,2013-02-24 22:40:00,
2013-02-24 17:50:00,60.1,22.1,29.92,WNW,300,1.0,5.0,23,0.00,CLR,,0.01,WeatherDisplay:10.37,2013-02-24 22:50:00,
2013-02-24 18:00:00,59.9,22.0,29.92,WNW,303,0.0,3.0,23,0.00,CLR,,0.01,WeatherDisplay:10.37,2013-02-24 23:00:00,
2013-02-24 18:10:00,59.5,22.6,29.92,NW,304,1.0,4.0,24,0.00,CLR,,0.01,WeatherDisplay:10.37,2013-02-24 23:10:00,
2013-02-24 18:20:00,58.4,21.7,29.93,NW,310,1.0,6.0,24,0.00,CLR,,0.01,WeatherDisplay:10.37,2013-02-24 23:20:00,
2013-02-24 18:30:00,57.5,20.9,29.93,NW,314,0.0,3.0,24,0.00,CLR,,0.01,WeatherDisplay:10.37,2013-02-24 23:30:00,
2013-02-24 18:40:00,56.6,21.1,29.94,NW,315,0.0,2.0,25,0.00,CLR,,0.01,WeatherDisplay:10.37,2013-02-24 23:40:00,
2013-02-24 18:50:00,55.9,21.5,29.96,NW,314,0.0,2.0,26,0.00,CLR,,0.01,WeatherDisplay:10.37,2013-02-24 23:50:00,
2013-02-24 19:00:00,55.3,21.0,29.96,NW,314,0.0,2.0,26,0.00,CLR,,0.01,WeatherDisplay:10.37,2013-02-25 00:00:00,
2013-02-24 19:10:00,54.7,21.3,29.96,NW,314,0.0,0.0,27,0.00,CLR,,0.01,WeatherDisplay:10.37,2013-02-25 00:10:00,
2013-02-24 19:20:00,54.1,21.7,29.98,NW,314,0.0,2.0,28,0.00,CLR,,0.01,WeatherDisplay:10.37,2013-02-25 00:20:00,
2013-02-24 19:30:00,53.6,21.2,29.98,NW,314,0.0,0.0,28,0.00,CLR,,0.01,WeatherDisplay:10.37,2013-02-25 00:30:00,
2013-02-24 19:40:00,53.1,20.8,29.98,NW,314,0.0,2.0,28,0.00,CLR,,0.01,WeatherDisplay:10.37,2013-02-25 00:40:00,
2013-02-24 19:50:00,52.6,21.2,29.99,NW,314,0.0,3.0,29,0.00,CLR,,0.01,WeatherDisplay:10.37,2013-02-25 00:50:00,
2013-02-24 20:00:00,52.2,21.7,29.99,NW,314,0.0,1.0,30,0.00,CLR,,0.01,WeatherDisplay:10.37,2013-02-25 01:00:00,
2013-02-24 20:10:00,51.7,20.4,30.00,NW,314,0.0,2.0,29,0.00,CLR,,0.01,WeatherDisplay:10.37,2013-02-25 01:10:00,
2013-02-24 20:20:00,51.3,20.9,30.00,NW,313,0.0,2.0,30,0.00,CLR,,0.01,WeatherDisplay:10.37,2013-02-25 01:20:00,
2013-02-24 20:30:00,51.0,21.4,30.00,NW,313,0.0,2.0,31,0.00,CLR,,0.01,WeatherDisplay:10.37,2013-02-25 01:30:00,
2013-02-24 20:40:00,50.5,20.2,30.01,NW,316,0.0,3.0,30,0.00,CLR,,0.01,WeatherDisplay:10.37,2013-02-25 01:40:00,
2013-02-24 20:50:00,50.2,20.6,30.01,NW,317,0.0,2.0,31,0.00,CLR,,0.01,WeatherDisplay:10.37,2013-02-25 01:50:00,
2013-02-24 21:00:00,49.9,20.4,30.01,NW,315,0.0,2.0,31,0.00,CLR,,0.01,WeatherDisplay:10.37,2013-02-25 02:00:00,
2013-02-24 21:10:00,49.5,20.1,30.01,NW,315,0.0,0.0,31,0.00,CLR,,0.01,WeatherDisplay:10.37,2013-02-25 02:10:00,
2013-02-24 21:20:00,49.2,20.6,30.01,NW,315,0.0,1.0,32,0.00,CLR,,0.01,WeatherDisplay:10.37,2013-02-25 02:20:00,
2013-02-24 21:30:00,48.8,20.9,30.01,NW,315,0.0,0.0,33,0.00,CLR,,0.01,WeatherDisplay:10.37,2013-02-25 02:30:00,
2013-02-24 21:40:00,48.3,21.2,30.01,NW,316,0.0,1.0,34,0.00,CLR,,0.01,WeatherDisplay:10.37,2013-02-25 02:40:00,
2013-02-24 21:50:00,47.9,20.8,30.01,NW,317,0.0,3.0,34,0.00,CLR,,0.01,WeatherDisplay:10.37,2013-02-25 02:50:00,
2013-02-24 22:00:00,47.6,20.6,30.01,NNW,327,0.0,1.0,34,0.00,CLR,,0.01,WeatherDisplay:10.37,2013-02-25 03:00:00,
2013-02-24 22:10:00,47.3,21.0,30.02,NNW,327,0.0,0.0,35,0.00,CLR,,0.01,WeatherDisplay:10.37,2013-02-25 03:10:00,
2013-02-24 22:20:00,47.0,20.7,30.02,NNW,327,0.0,0.0,35,0.00,CLR,,0.01,WeatherDisplay:10.37,2013-02-25 03:20:00,
2013-02-24 22:30:00,46.7,20.5,30.02,NNW,327,0.0,1.0,35,0.00,CLR,,0.01,WeatherDisplay:10.37,2013-02-25 03:30:00,
2013-02-24 22:40:00,46.4,20.9,30.02,NNW,327,0.0,2.0,36,0.00,CLR,,0.01,WeatherDisplay:10.37,2013-02-25 03:40:00,
2013-02-24 22:50:00,46.2,20.7,30.02,NNW,327,0.0,2.0,36,0.00,CLR,,0.01,WeatherDisplay:10.37,2013-02-25 03:50:00,
2013-02-24 23:00:00,46.0,21.2,30.02,NNW,328,0.0,2.0,37,0.00,CLR,,0.01,WeatherDisplay:10.37,2013-02-25 04:00:00,
2013-02-24 23:10:00,45.8,21.0,30.02,NNW,335,0.0,3.0,37,0.00,CLR,,0.01,WeatherDisplay:10.37,2013-02-25 04:10:00,
2013-02-24 23:20:00,45.5,21.3,30.02,North,350,0.0,3.0,38,0.00,CLR,,0.01,WeatherDisplay:10.37,2013-02-25 04:20:00,
2013-02-24 23:30:00,45.4,21.2,30.02,North,350,0.0,0.0,38,0.00,CLR,,0.01,WeatherDisplay:10.37,2013-02-25 04:30:00,
2013-02-24 23:40:00,44.9,21.4,30.03,North,350,0.0,0.0,39,0.00,CLR,,0.01,WeatherDisplay:10.37,2013-02-25 04:40:00,
2013-02-24 23:50:00,44.6,21.1,30.03,North,350,0.0,0.0,39,0.00,CLR,,0.01,WeatherDisplay:10.37,2013-02-25 04:50:00,